Time,TemperatureF,DewpointF,PressureIn,WindDirection,WindDirectionDegrees,WindSpeedMPH,WindSpeedGustMPH,Humidity,HourlyPrecipIn,Conditions,Clouds,dailyrainin,SolarRadiationWatts/m^2,SoftwareType,DateUTC
2013-08-28 06:50:00,68.5,53.7,0.00,SW,225,0.0,0.0,59,0.00,,---,0.00,0.00,VWS V14.01,2013-08-28 11:50:00,
2013-08-28 06:51:00,68.5,53.7,0.00,SW,225,0.0,0.0,59,0.00,,---,0.00,0.00,VWS V14.01,2013-08-28 11:51:00,
2013-08-28 06:53:00,68.5,53.7,29.97,SW,225,0.0,0.0,59,0.00,,---,0.00,0.00,VWS V14.01,2013-08-28 11:53:00,
2013-08-28 06:54:00,68.5,53.7,29.97,SW,225,0.0,0.0,59,0.00,,---,0.00,0.00,VWS V14.01,2013-08-28 11:54:00,
2013-08-28 07:00:00,68.5,54.1,29.97,SW,225,0.0,0.0,60,0.00,,---,0.00,0.00,VWS V14.01,2013-08-28 12:00:00,
2013-08-28 07:05:00,68.5,54.6,29.97,WSW,248,0.0,0.0,61,0.00,,---,0.00,0.00,VWS V14.01,2013-08-28 12:05:00,
2013-08-28 07:08:00,68.5,54.6,29.97,SW,225,0.0,0.0,61,0.00,,---,0.00,0.00,VWS V14.01,2013-08-28 12:08:00,
2013-08-28 07:09:00,68.5,54.6,29.97,SW,225,0.0,0.0,61,0.00,,---,0.00,0.00,VWS V14.01,2013-08-28 12:09:00,
2013-08-28 07:15:00,68.7,55.2,29.97,WSW,248,0.0,0.0,62,0.00,,---,0.00,0.00,VWS V14.01,2013-08-28 12:15:00,
2013-08-28 07:21:00,68.7,55.2,29.97,SW,225,0.0,0.0,62,0.00,,---,0.00,0.00,VWS V14.01,2013-08-28 12:21:00,
2013-08-28 07:26:00,68.9,55.4,29.97,SW,225,0.0,0.0,62,0.00,,---,0.00,0.00,VWS V14.01,2013-08-28 12:26:00,
2013-08-28 07:32:00,68.9,55.8,29.97,WSW,248,0.0,0.0,63,0.00,,---,0.00,0.00,VWS V14.01,2013-08-28 12:32:00,
2013-08-28 07:38:00,68.9,55.8,29.97,WSW,248,0.0,0.0,63,0.00,,---,8.35,0.00,VWS V14.01,2013-08-28 12:38:00,
2013-08-28 07:44:00,68.9,55.8,29.97,WSW,248,0.0,0.0,63,0.00,,---,8.35,0.00,VWS V14.01,2013-08-28 12:44:00,
2013-08-28 07:50:00,68.9,55.8,29.97,SW,225,0.0,0.0,63,0.00,,---,8.35,0.00,VWS V14.01,2013-08-28 12:50:00,
2013-08-28 07:56:00,70.5,57.8,29.97,SW,225,0.0,0.0,64,0.00,,---,8.35,0.00,VWS V14.01,2013-08-28 12:56:00,
2013-08-28 08:02:00,71.1,58.3,29.97,SW,225,0.0,0.0,64,0.00,,---,8.35,0.00,VWS V14.01,2013-08-28 13:02:00,
2013-08-28 08:08:00,72.1,58.9,30.00,West,270,0.0,0.0,63,0.00,,---,8.35,0.00,VWS V14.01,2013-08-28 13:08:00,
2013-08-28 08:14:00,72.1,58.9,30.00,WSW,248,2.2,2.5,63,0.00,,---,8.35,0.00,VWS V14.01,2013-08-28 13:14:00,
2013-08-28 08:20:00,72.1,58.9,30.00,WSW,248,3.1,3.4,63,0.00,,---,8.35,0.00,VWS V14.01,2013-08-28 13:20:00,
2013-08-28 08:26:00,74.1,59.4,29.97,SSW,202,4.0,4.0,60,0.00,,---,8.35,0.00,VWS V14.01,2013-08-28 13:26:00,
2013-08-28 08:31:00,75.2,58.9,29.97,SW,225,3.4,3.4,57,0.00,,---,8.35,0.00,VWS V14.01,2013-08-28 13:31:00,
2013-08-28 08:37:00,75.9,59.1,29.97,WSW,248,4.3,4.3,56,0.00,,---,8.35,0.00,VWS V14.01,2013-08-28 13:37:00,
2013-08-28 08:42:00,76.8,59.5,30.00,SW,225,2.7,4.0,55,0.00,,---,8.35,0.00,VWS V14.01,2013-08-28 13:42:00,
2013-08-28 08:47:00,77.4,58.4,30.00,WSW,248,4.3,4.9,52,0.00,,---,8.35,0.00,VWS V14.01,2013-08-28 13:47:00,
2013-08-28 08:53:00,78.1,58.5,29.97,WSW,248,4.0,6.7,51,0.00,,---,8.35,0.00,VWS V14.01,2013-08-28 13:53:00,
2013-08-28 08:59:00,78.8,57.5,29.97,West,270,3.8,5.6,48,0.00,,---,8.35,0.00,VWS V14.01,2013-08-28 13:59:00,
2013-08-28 09:04:00,79.3,56.2,29.97,WSW,248,6.0,7.2,45,0.00,,---,8.35,0.00,VWS V14.01,2013-08-28 14:04:00,
2013-08-28 09:10:00,79.9,55.4,29.94,West,270,6.3,6.3,43,0.00,,---,8.35,0.00,VWS V14.01,2013-08-28 14:10:00,
2013-08-28 09:16:00,79.9,55.4,29.94,West,270,4.3,6.3,43,0.00,,---,8.35,0.00,VWS V14.01,2013-08-28 14:16:00,
2013-08-28 09:22:00,80.6,55.4,29.97,WNW,292,8.1,8.1,42,0.00,,---,8.35,0.00,VWS V14.01,2013-08-28 14:22:00,
2013-08-28 09:28:00,81.3,54.7,29.97,WNW,292,5.8,6.0,40,0.00,,---,8.35,0.00,VWS V14.01,2013-08-28 14:28:00,
2013-08-28 09:33:00,82.0,55.4,29.97,WNW,292,4.0,5.4,40,0.00,,---,8.35,0.00,VWS V14.01,2013-08-28 14:33:00,
2013-08-28 09:38:00,82.0,55.4,29.97,West,270,8.5,8.5,40,0.00,,---,8.35,0.00,VWS V14.01,2013-08-28 14:38:00,
2013-08-28 09:44:00,82.8,54.6,29.97,WSW,248,3.6,3.6,38,0.00,,---,8.35,0.00,VWS V14.01,2013-08-28 14:44:00,
2013-08-28 09:49:00,83.3,52.8,29.97,WSW,248,3.8,5.4,35,0.00,,---,8.35,0.00,VWS V14.01,2013-08-28 14:49:00,
2013-08-28 09:55:00,83.3,52.8,29.97,SW,225,8.1,8.1,35,0.00,,---,8.35,0.00,VWS V14.01,2013-08-28 14:55:00,
2013-08-28 10:01:00,83.3,52.8,29.97,NW,315,6.0,6.0,35,0.00,,---,8.35,0.00,VWS V14.01,2013-08-28 15:01:00,
2013-08-28 10:07:00,84.9,51.8,29.97,NW,315,7.8,7.8,32,0.00,,---,8.35,0.00,VWS V14.01,2013-08-28 15:07:00,
2013-08-28 10:13:00,84.9,51.8,29.97,WNW,292,6.3,6.3,32,0.00,,---,8.35,0.00,VWS V14.01,2013-08-28 15:13:00,
2013-08-28 10:18:00,84.9,51.8,29.97,NW,315,7.8,7.8,32,0.00,,---,8.35,0.00,VWS V14.01,2013-08-28 15:18:00,
2013-08-28 10:24:00,85.8,52.6,29.97,WSW,248,2.7,3.6,32,0.00,,---,8.35,0.00,VWS V14.01,2013-08-28 15:24:00,
2013-08-28 10:30:00,86.7,50.7,29.97,WSW,248,5.8,7.2,29,0.00,,---,8.35,0.00,VWS V14.01,2013-08-28 15:30:00,
2013-08-28 10:36:00,87.1,51.0,29.97,West,270,6.5,9.8,29,0.00,,---,8.35,0.00,VWS V14.01,2013-08-28 15:36:00,
2013-08-28 10:41:00,87.1,51.0,29.97,WNW,292,7.4,7.4,29,0.00,,---,8.35,0.00,VWS V14.01,2013-08-28 15:41:00,
2013-08-28 10:46:00,87.8,47.6,29.97,WNW,292,8.1,8.1,25,0.00,,---,8.35,0.00,VWS V14.01,2013-08-28 15:46:00,
2013-08-28 10:51:00,88.0,46.7,29.97,West,270,4.0,4.0,24,0.00,,---,8.35,0.00,VWS V14.01,2013-08-28 15:51:00,
2013-08-28 10:57:00,88.3,48.1,29.97,West,270,7.8,7.8,25,0.00,,---,8.35,0.00,VWS V14.01,2013-08-28 15:57:00,
2013-08-28 11:02:00,88.7,43.8,29.97,WSW,248,5.4,10.1,21,0.00,,---,8.35,0.00,VWS V14.01,2013-08-28 16:02:00,
2013-08-28 11:08:00,88.9,45.2,29.97,WSW,248,6.3,8.1,22,0.00,,---,8.35,0.00,VWS V14.01,2013-08-28 16:08:00,
2013-08-28 11:13:00,89.4,44.4,29.97,WNW,292,5.8,5.8,21,0.00,,---,8.35,0.00,VWS V14.01,2013-08-28 16:13:00,
2013-08-28 11:18:00,90.1,45.0,29.97,West,270,5.4,5.4,21,0.00,,---,8.35,0.00,VWS V14.01,2013-08-28 16:18:00,
2013-08-28 11:24:00,90.9,44.3,29.97,WNW,292,3.4,7.8,20,0.00,,---,8.35,0.00,VWS V14.01,2013-08-28 16:24:00,
2013-08-28 11:30:00,91.0,44.4,29.97,NW,315,4.9,4.9,20,0.00,,---,8.35,0.00,VWS V14.01,2013-08-28 16:30:00,
2013-08-28 11:36:00,91.8,43.7,29.97,SW,225,6.5,6.5,19,0.00,,---,8.35,0.00,VWS V14.01,2013-08-28 16:36:00,
2013-08-28 11:42:00,91.9,40.9,29.97,WNW,292,6.5,6.7,17,0.00,,---,8.35,0.00,VWS V14.01,2013-08-28 16:42:00,
2013-08-28 11:48:00,91.9,40.9,29.97,South,180,8.1,8.1,17,0.00,,---,8.35,0.00,VWS V14.01,2013-08-28 16:48:00,
2013-08-28 11:53:00,91.9,40.9,29.97,NW,315,7.4,10.1,17,0.00,,---,8.35,0.00,VWS V14.01,2013-08-28 16:53:00,
2013-08-28 11:58:00,91.8,40.8,29.97,West,270,7.4,7.4,17,0.00,,---,8.35,0.00,VWS V14.01,2013-08-28 16:58:00,
2013-08-28 12:04:00,92.1,41.1,29.97,NW,315,4.7,6.0,17,0.00,,---,8.35,0.00,VWS V14.01,2013-08-28 17:04:00,
2013-08-28 12:10:00,92.1,41.1,29.97,WSW,248,6.0,6.9,17,0.00,,---,8.35,0.00,VWS V14.01,2013-08-28 17:10:00,
2013-08-28 12:17:00,93.0,41.8,29.97,WSW,248,4.3,6.5,17,0.00,,---,8.35,0.00,VWS V14.01,2013-08-28 17:17:00,
2013-08-28 12:22:00,93.0,41.8,29.97,West,270,6.0,6.0,17,0.00,,---,8.35,0.00,VWS V14.01,2013-08-28 17:22:00,
2013-08-28 12:27:00,93.0,41.8,29.97,WSW,248,10.5,10.5,17,0.00,,---,8.35,0.00,VWS V14.01,2013-08-28 17:27:00,
2013-08-28 12:33:00,93.0,41.8,29.97,SW,225,6.9,6.9,17,0.00,,---,8.35,0.00,VWS V14.01,2013-08-28 17:33:00,
2013-08-28 12:39:00,93.2,37.0,29.97,West,270,7.6,7.6,14,0.00,,---,8.35,0.00,VWS V14.01,2013-08-28 17:39:00,
2013-08-28 12:44:00,93.7,37.4,29.97,WSW,248,5.4,6.0,14,0.00,,---,8.35,0.00,VWS V14.01,2013-08-28 17:44:00,
2013-08-28 12:50:00,93.7,37.4,29.97,WSW,248,4.3,5.4,14,0.00,,---,8.35,0.00,VWS V14.01,2013-08-28 17:50:00,
2013-08-28 12:55:00,93.7,37.4,29.97,WSW,248,4.0,4.0,14,0.00,,---,8.35,0.00,VWS V14.01,2013-08-28 17:55:00,
2013-08-28 13:01:00,93.7,37.4,29.97,WSW,248,5.8,8.1,14,0.00,,---,8.35,0.00,VWS V14.01,2013-08-28 18:01:00,
2013-08-28 13:06:00,93.7,37.4,29.97,South,180,9.8,9.8,14,0.00,,---,8.35,0.00,VWS V14.01,2013-08-28 18:06:00,
2013-08-28 13:12:00,95.0,38.4,30.00,SSW,202,6.0,10.5,14,0.00,,---,8.35,0.00,VWS V14.01,2013-08-28 18:12:00,
2013-08-28 13:17:00,94.8,38.2,30.00,West,270,6.5,6.5,14,0.00,,---,8.35,0.00,VWS V14.01,2013-08-28 18:17:00,
2013-08-28 13:22:00,94.6,32.0,29.97,WSW,248,5.6,5.6,11,0.00,,---,8.35,0.00,VWS V14.01,2013-08-28 18:22:00,
2013-08-28 13:28:00,94.6,38.1,29.97,West,270,6.3,6.3,14,0.00,,---,8.35,0.00,VWS V14.01,2013-08-28 18:28:00,
2013-08-28 13:34:00,94.8,32.2,29.97,SW,225,6.3,6.3,11,0.00,,---,8.35,0.00,VWS V14.01,2013-08-28 18:34:00,
2013-08-28 13:39:00,95.0,32.3,29.97,WSW,248,5.8,7.6,11,0.00,,---,8.35,0.00,VWS V14.01,2013-08-28 18:39:00,
2013-08-28 13:44:00,95.2,32.5,30.00,South,180,4.0,4.0,11,0.00,,---,8.35,0.00,VWS V14.01,2013-08-28 18:44:00,
2013-08-28 13:50:00,95.5,32.7,30.00,SW,225,4.9,4.9,11,0.00,,---,8.35,0.00,VWS V14.01,2013-08-28 18:50:00,
2013-08-28 13:59:00,95.7,32.9,29.97,SW,225,5.8,5.8,11,0.00,,---,8.35,0.00,VWS V14.01,2013-08-28 18:59:00,
2013-08-28 14:04:00,95.7,32.9,29.97,SW,225,5.4,5.4,11,0.00,,---,8.35,0.00,VWS V14.01,2013-08-28 19:04:00,
2013-08-28 14:10:00,95.5,32.7,30.00,SSW,202,5.8,5.8,11,0.00,,---,8.35,0.00,VWS V14.01,2013-08-28 19:10:00,
2013-08-28 14:15:00,95.7,32.9,30.00,SW,225,3.8,8.5,11,0.00,,---,8.35,0.00,VWS V14.01,2013-08-28 19:15:00,
2013-08-28 14:22:00,96.3,33.3,29.97,SSW,202,5.8,5.8,11,0.00,,---,8.35,0.00,VWS V14.01,2013-08-28 19:22:00,
2013-08-28 14:28:00,96.3,33.3,29.97,SSW,202,5.6,5.6,11,0.00,,---,8.35,0.00,VWS V14.01,2013-08-28 19:28:00,
2013-08-28 14:33:00,96.3,33.3,29.97,South,180,5.6,8.1,11,0.00,,---,8.35,0.00,VWS V14.01,2013-08-28 19:33:00,
2013-08-28 14:38:00,96.3,33.3,29.97,SW,225,5.6,5.6,11,0.00,,---,8.35,0.00,VWS V14.01,2013-08-28 19:38:00,
2013-08-28 14:44:00,96.3,33.3,29.97,SW,225,7.2,8.1,11,0.00,,---,8.35,0.00,VWS V14.01,2013-08-28 19:44:00,
2013-08-28 14:49:00,96.3,33.3,29.97,SW,225,7.2,7.2,11,0.00,,---,8.35,0.00,VWS V14.01,2013-08-28 19:49:00,
2013-08-28 14:55:00,96.4,33.4,29.97,South,180,5.6,6.3,11,0.00,,---,8.35,0.00,VWS V14.01,2013-08-28 19:55:00,
2013-08-28 15:00:00,96.6,33.6,29.97,SSE,158,3.8,3.8,11,0.00,,---,8.35,0.00,VWS V14.01,2013-08-28 20:00:00,
2013-08-28 15:05:00,96.6,33.6,29.97,South,180,5.6,5.6,11,0.00,,---,8.35,0.00,VWS V14.01,2013-08-28 20:05:00,
2013-08-28 15:11:00,96.6,33.6,29.94,SW,225,7.4,7.4,11,0.00,,---,8.35,0.00,VWS V14.01,2013-08-28 20:11:00,
2013-08-28 15:17:00,96.3,33.3,29.94,SW,225,7.6,8.1,11,0.00,,---,8.35,0.00,VWS V14.01,2013-08-28 20:17:00,
2013-08-28 15:22:00,96.3,33.3,29.94,South,180,6.7,7.4,11,0.00,,---,8.35,0.00,VWS V14.01,2013-08-28 20:22:00,
2013-08-28 15:28:00,96.4,33.4,29.94,SW,225,10.1,10.1,11,0.00,,---,8.35,0.00,VWS V14.01,2013-08-28 20:28:00,
2013-08-28 15:33:00,96.3,33.3,29.94,South,180,4.0,4.3,11,0.00,,---,8.35,0.00,VWS V14.01,2013-08-28 20:33:00,
2013-08-28 15:38:00,96.4,33.4,29.94,WSW,248,4.9,8.5,11,0.00,,---,8.35,0.00,VWS V14.01,2013-08-28 20:38:00,
2013-08-28 15:45:00,96.6,33.6,29.94,SW,225,5.4,5.4,11,0.00,,---,8.35,0.00,VWS V14.01,2013-08-28 20:45:00,
2013-08-28 15:51:00,96.4,33.4,29.94,SE,135,6.0,6.3,11,0.00,,---,8.35,0.00,VWS V14.01,2013-08-28 20:51:00,
2013-08-28 15:56:00,96.4,33.4,29.94,SW,225,8.5,8.5,11,0.00,,---,8.35,0.00,VWS V14.01,2013-08-28 20:56:00,
2013-08-28 16:01:00,96.4,33.4,29.94,West,270,4.0,4.9,11,0.00,,---,8.35,0.00,VWS V14.01,2013-08-28 21:01:00,
2013-08-28 16:07:00,96.4,33.4,29.94,South,180,3.6,5.4,11,0.00,,---,8.35,0.00,VWS V14.01,2013-08-28 21:07:00,
2013-08-28 16:13:00,96.3,33.3,29.94,WSW,248,5.4,5.4,11,0.00,,---,8.35,0.00,VWS V14.01,2013-08-28 21:13:00,
2013-08-28 16:18:00,96.3,33.3,29.94,SW,225,3.8,3.8,11,0.00,,---,8.35,0.00,VWS V14.01,2013-08-28 21:18:00,
2013-08-28 16:24:00,95.9,33.0,29.94,WNW,292,2.5,4.9,11,0.00,,---,8.35,0.00,VWS V14.01,2013-08-28 21:24:00,
2013-08-28 16:30:00,96.3,33.3,29.94,West,270,6.0,6.0,11,0.00,,---,8.35,0.00,VWS V14.01,2013-08-28 21:30:00,
2013-08-28 16:36:00,96.4,33.4,29.94,West,270,5.4,5.4,11,0.00,,---,8.35,0.00,VWS V14.01,2013-08-28 21:36:00,
2013-08-28 16:41:00,96.8,33.7,29.94,WSW,248,6.5,6.5,11,0.00,,---,8.35,0.00,VWS V14.01,2013-08-28 21:41:00,
2013-08-28 16:47:00,95.2,32.5,29.94,WNW,292,3.6,4.0,11,0.00,,---,8.35,0.00,VWS V14.01,2013-08-28 21:47:00,
2013-08-28 16:53:00,94.6,32.0,29.94,West,270,5.4,8.7,11,0.00,,---,8.35,0.00,VWS V14.01,2013-08-28 21:53:00,
2013-08-28 16:59:00,94.8,32.2,29.94,SW,225,2.7,3.8,11,0.00,,---,8.35,0.00,VWS V14.01,2013-08-28 21:59:00,
2013-08-28 17:05:00,94.8,32.2,29.94,South,180,3.1,3.1,11,0.00,,---,8.35,0.00,VWS V14.01,2013-08-28 22:05:00,
2013-08-28 17:11:00,95.5,38.8,29.94,SW,225,5.4,5.8,14,0.00,,---,8.35,0.00,VWS V14.01,2013-08-28 22:11:00,
2013-08-28 17:16:00,95.7,39.0,29.94,WSW,248,6.0,6.0,14,0.00,,---,8.35,0.00,VWS V14.01,2013-08-28 22:16:00,
2013-08-28 17:22:00,96.1,39.2,29.94,WSW,248,5.4,5.4,14,0.00,,---,8.35,0.00,VWS V14.01,2013-08-28 22:22:00,
2013-08-28 17:29:00,95.4,38.7,29.94,South,180,4.3,4.3,14,0.00,,---,8.35,0.00,VWS V14.01,2013-08-28 22:29:00,
2013-08-28 17:35:00,95.5,38.8,29.94,WSW,248,3.1,4.9,14,0.00,,---,8.35,0.00,VWS V14.01,2013-08-28 22:35:00,
2013-08-28 17:40:00,95.5,38.8,29.94,WSW,248,3.8,6.5,14,0.00,,---,8.35,0.00,VWS V14.01,2013-08-28 22:40:00,
2013-08-28 17:45:00,95.5,38.8,29.94,NW,315,2.9,2.9,14,0.00,,---,8.35,0.00,VWS V14.01,2013-08-28 22:45:00,
2013-08-28 17:51:00,95.5,38.8,29.94,SW,225,5.8,5.8,14,0.00,,---,8.35,0.00,VWS V14.01,2013-08-28 22:51:00,
2013-08-28 17:56:00,95.5,38.8,29.94,West,270,3.8,4.3,14,0.00,,---,8.35,0.00,VWS V14.01,2013-08-28 22:56:00,
2013-08-28 18:01:00,95.4,38.7,29.94,SW,225,3.4,4.0,14,0.00,,---,8.35,0.00,VWS V14.01,2013-08-28 23:01:00,
2013-08-28 18:07:00,95.4,38.7,29.94,South,180,5.4,5.4,14,0.00,,---,8.35,0.00,VWS V14.01,2013-08-28 23:07:00,
2013-08-28 18:13:00,94.8,38.2,29.94,SW,225,3.8,3.8,14,0.00,,---,8.35,0.00,VWS V14.01,2013-08-28 23:13:00,
2013-08-28 18:19:00,94.1,37.7,29.94,SW,225,4.3,4.3,14,0.00,,---,8.35,0.00,VWS V14.01,2013-08-28 23:19:00,
2013-08-28 18:24:00,93.7,37.4,29.94,SSW,202,5.4,6.3,14,0.00,,---,8.35,0.00,VWS V14.01,2013-08-28 23:24:00,
2013-08-28 18:29:00,93.7,37.4,29.94,SW,225,2.0,2.0,14,0.00,,---,8.35,0.00,VWS V14.01,2013-08-28 23:29:00,
2013-08-28 18:34:00,93.7,37.4,29.94,SSW,202,3.8,4.3,14,0.00,,---,8.35,0.00,VWS V14.01,2013-08-28 23:34:00,
2013-08-28 18:40:00,93.2,37.0,29.94,WSW,248,3.8,3.8,14,0.00,,---,8.35,0.00,VWS V14.01,2013-08-28 23:40:00,
2013-08-28 18:46:00,92.3,36.3,29.94,SW,225,3.4,3.8,14,0.00,,---,8.35,0.00,VWS V14.01,2013-08-28 23:46:00,
2013-08-28 18:52:00,91.0,37.0,29.97,SSW,202,3.4,5.4,15,0.00,,---,8.35,0.00,VWS V14.01,2013-08-28 23:52:00,
2013-08-28 18:57:00,90.5,36.6,29.97,SW,225,3.1,3.6,15,0.00,,---,8.35,0.00,VWS V14.01,2013-08-28 23:57:00,
2013-08-28 19:03:00,89.2,40.2,29.97,WSW,248,1.6,2.9,18,0.00,,---,8.35,0.00,VWS V14.01,2013-08-29 00:03:00,